Flag for U.S.A. Weather past 2 weeks in Greensboro, North Carolina, U.S.A.

Now
87 °F

Broken clouds.


Feels Like: 92 °F
Forecast: 72 / 91 °F
Wind: 8 mph from West

Location: Piedmont Triad International Airport

Current Time: Aug 22, 2014 at 6:42:54 PM

Latest Report: Aug 22, 2014 at 5:54 PM


Visibility: 10 mi

Pressure: 29.94 "Hg

Humidity: 57%

Dew point: 70 °F

Location of GreensboroLocation

Historic Weather in Greensboro — Graph

°F

Greensboro temperature yesterday

Maximum temperature yesterday: 90 °F (at 3:54 PM)
Minimum temperature yesterday: 72 °F (at 2:54 AM)
Average temperature yesterday: 81 °F

Past Weeks' High & Low Weather Summary

 TemperatureHumidityPressure
High90 °F (Aug 21, 3:54 PM)100% (Aug 8, 6:00 AM)30.13 "Hg (Aug 8, 6:00 AM)
Low58 °F (Aug 14, 4:54 AM)41% (Aug 14, 2:54 PM)29.76 "Hg (Aug 12, 5:54 PM)
Average75 °F77%29.97 "Hg
* Reported Aug 7 4:54 PM — Aug 22 4:54 PM, Greensboro, Weather by CustomWeather, © 2014

Note: Actual official high and low records may vary slightly from our data, if they occured in-between our weather recording intervals... More about our weather records

Advertising

Greensboro weather history for previous 24 hours

 ConditionsComfort  
Time TempWeatherWind HumidityBarometerVisibility
4:54 PM
Aug 22
88 °FBroken clouds.9 mph57%29.96 "Hg10 mi
3:54 PM87 °FMostly cloudy.10 mph57%29.96 "Hg10 mi
2:54 PM89 °FBroken clouds.7 mph55%29.98 "Hg10 mi
1:54 PM88 °FMostly cloudy.8 mph55%29.99 "Hg10 mi
12:54 PM89 °FCloudy.6 mph57%30.00 "Hg10 mi
11:54 AM88 °FCloudy.9 mph57%30.01 "Hg10 mi
10:54 AM86 °FMostly cloudy.3 mph59%30.02 "Hg10 mi
9:54 AM83 °FOvercast.3 mph68%30.02 "Hg10 mi
8:54 AM80 °FOvercast.3 mph71%30.02 "Hg10 mi
7:54 AM73 °FPartly sunny.No wind84%30.02 "Hg10 mi
6:54 AM71 °FPassing clouds.No wind87%30.01 "Hg10 mi
5:54 AM72 °FPassing clouds.No wind84%29.99 "Hg10 mi
4:54 AM73 °FPassing clouds.No wind84%29.99 "Hg10 mi
3:54 AM73 °FPassing clouds.No wind84%29.98 "Hg10 mi
2:54 AM73 °FPassing clouds.5 mph88%30.01 "Hg10 mi
1:54 AM74 °FPassing clouds.6 mph82%30.02 "Hg10 mi
12:54 AM78 °FPassing clouds.3 mph76%30.04 "Hg10 mi
11:54 PM
Aug 21
79 °FPartly cloudy.No wind72%30.03 "Hg10 mi
10:54 PM80 °FPartly cloudy.7 mph69%30.02 "Hg10 mi
9:54 PM80 °FPassing clouds.6 mph69%30.02 "Hg10 mi
8:54 PM81 °FBroken clouds.6 mph67%30.03 "Hg10 mi
7:54 PM83 °FBroken clouds.6 mph63%30.03 "Hg10 mi
6:54 PM85 °FPartly sunny.6 mph59%30.03 "Hg10 mi
Weather by CustomWeather, © 2014

See weather overviewHow to use our weather pages